www.pogodaiklimat.ru

Погода и климат >> Архив погоды >> Австралия >> Onslow Airport


ПОГОДА в Onslow Airport

  • Прогноз погоды в Onslow Airport
  • Монитор погоды в Onslow Airport
  • Климат города

АРХИВ ПОГОДЫ в Onslow Airport

Время (UTC), дата Ветер
(напр.,м/с)
 
Видим.   Явления Облачность Т
(С)
Тd
(С)
f
(%)
Тe
(С)
Тes
(С)
Комфортность P
(гПа)
Po
(гПа)
Тmin
(С)
Tmax
(С)
R
(мм)
R24
(мм)
S
(см)
04 12.08 СЗ 6 н/о н/о +25.1 +11.6 43 +27 +27 жарко 1016.6 1015.3
06 12.08 З 6 н/о н/о +24.7 +12.6 47 +27 +27 жарко 1015.6 1014.3
07 12.08 З 5 н/о н/о +24.9 +12.5 46 +27 +27 жарко 1015.4 1014.1
09 12.08 З 4 н/о н/о +23.8 +13.4 52 +26 +26 жарко 1015.3 1014.0
10 12.08 З 2 н/о н/о +22.2 +13.5 58 +25 +25 комфорт 1015.4 1014.1
12 12.08 З 2 н/о н/о +19.6 +13.8 69 +22 +22 комфорт 1016.2 1014.9
13 12.08 З 3 н/о н/о +19.1 +13.9 72 +21 +21 комфорт 1016.5 1015.2 +25.9
15 12.08 ЮЗ 4 н/о н/о +18.6 +14.7 78 +19 +19 1016.6 1015.3
16 12.08 С 3 н/о н/о +18.1 +15.4 84 +18 +18 1016.6 1015.3
18 12.08 С 3 н/о н/о +18.0 +16.0 88 +18 +18 1016.1 1014.8
19 12.08 СВ 3 н/о н/о +18.1 +16.6 91 +19 +19 1016.0 1014.7
21 12.08 СВ 3 н/о н/о +17.9 +16.8 93 +18 +18 1016.0 1014.7
22 12.08 СВ 3 н/о н/о +17.4 +16.3 93 +18 +18 1016.5 1015.2
00 13.08 СВ 4 н/о н/о +20.0 +17.8 87 +23 +23 комфорт 1017.5 1016.2
01 13.08 СВ 6 н/о н/о +23.3 +18.2 73 +29 +29 душно 1018.1 1016.8 +17.0
03 13.08 С 6 н/о н/о +25.1 +16.8 60 +29 +29 душно 1018.1 1016.8
04 13.08 С 6 н/о н/о +25.5 +17.2 60 +29 +29 душно 1017.5 1016.2
06 13.08 СЗ 5 н/о н/о +25.9 +16.7 57 +30 +30 душно 1016.3 1015.0
07 13.08 СЗ 5 н/о н/о +26.0 +16.5 56 +30 +30 душно 1016.1 1014.8
09 13.08 СЗ 5 н/о н/о +24.3 +16.8 63 +28 +28 душно 1016.1 1014.8
10 13.08 СЗ 4 н/о н/о +22.6 +17.1 71 +27 +27 душно 1016.0 1014.7
12 13.08 СЗ 3 н/о н/о +20.7 +17.5 82 +25 +25 комфорт 1017.2 1015.9
13 13.08 З 3 н/о н/о +20.0 +17.4 85 +23 +23 комфорт 1017.6 1016.3 +27.6
15 13.08 З 3 н/о н/о +19.5 +17.8 90 +22 +22 комфорт 1017.4 1016.1
16 13.08 З 4 н/о н/о +19.5 +18.2 92 +22 +22 комфорт 1017.0 1015.7
18 13.08 З 4 н/о н/о +19.6 +18.4 93 +22 +22 комфорт 1016.8 1015.5
19 13.08 штиль 0 н/о н/о +19.4 +18.1 92 +21 +21 комфорт 1017.0 1015.7
21 13.08 штиль 0 н/о н/о +18.6 +17.3 92 +19 +19 1017.1 1015.8
22 13.08 штиль 0 н/о н/о +18.0 +16.7 92 +18 +18 1017.9 1016.6
00 14.08 СВ 3 н/о н/о +20.4 +18.5 89 +25 +25 комфорт 1019.2 1017.9
01 14.08 СВ 3 н/о н/о +23.8 +19.3 76 +29 +29 душно 1019.7 1018.4 +17.6
03 14.08 З 4 н/о н/о +25.9 +18.6 64 +31 +31 очень
душно
1019.1 1017.8
04 14.08 З 5 н/о н/о +26.6 +18.7 62 +32 +32 очень
душно
1018.2 1016.9
06 14.08 СЗ 7 н/о н/о +26.0 +18.7 64 +31 +31 очень
душно
1016.3 1015.0
07 14.08 СЗ 7 н/о н/о +26.1 +19.2 66 +31 +31 очень
душно
1015.8 1014.5
09 14.08 З 6 н/о н/о +24.6 +19.0 71 +30 +30 очень
душно
1016.1 1014.8
10 14.08 З 6 н/о н/о +22.9 +19.3 80 +29 +29 очень
душно
1016.3 1015.0
12 14.08 З 5 н/о н/о +22.2 +19.9 87 +28 +28 душно 1017.3 1016.0
13 14.08 З 4 н/о н/о +21.9 +19.5 86 +27 +27 душно 1017.9 1016.6 +27.5
15 14.08 ЮЗ 6 н/о н/о +22.0 +17.6 76 +27 +27 душно 1018.0 1016.7
16 14.08 ЮЗ 5 н/о н/о +21.4 +17.4 78 +25 +25 комфорт 1017.8 1016.5
18 14.08 Ю 4 н/о н/о +20.2 +17.2 83 +23 +23 комфорт 1017.2 1015.9
19 14.08 Ю 5 н/о 5/5 600 м
[]
+20.0 +16.8 82 +23 +23 комфорт 1017.1 1015.8
21 14.08 Ю 3 н/о н/о +18.9 +16.1 84 +20 +20 1017.2 1015.9
22 14.08 Ю 4 н/о 10/10 300 м
[]
+19.0 +16.2 84 +20 +20 1017.8 1016.5
00 15.08 Ю 6 н/о н/о +20.1 +16.5 80 +23 +23 комфорт 1019.2 1017.9
01 15.08 Ю 7 н/о н/о +22.5 +15.4 64 +26 +26 жарко 1019.6 1018.3 +19.0
03 15.08 Ю 8 н/о н/о +25.0 +15.0 54 +28 +28 жарко 1018.9 1017.6
04 15.08 Ю 7 н/о 5/5 600 м
[]
+25.7 +14.5 50 +28 +31 жарко 1017.7 1016.4
06 15.08 Ю 8 н/о н/о +26.2 +13.7 46 +28 +28 жарко 1016.0 1014.7
07 15.08 Ю 8 н/о ясно +27.0 +13.7 44 +29 +30 жарко 1015.4 1014.1
09 15.08 Ю 8 н/о н/о +26.1 +11.8 41 +27 +27 жарко 1015.0 1013.7
10 15.08 Ю 8 н/о н/о +24.3 +11.9 46 +26 +26 жарко 1015.4 1014.1
12 15.08 Ю 7 н/о н/о +22.0 +10.8 49 +24 +24 комфорт 1016.8 1015.5
13 15.08 Ю 6 н/о н/о +21.0 +10.2 50 +23 +23 комфорт 1017.1 1015.8 +27.8
15 15.08 Ю 6 н/о н/о +19.0 +8.6 51 +19 +19 1017.0 1015.7
16 15.08 Ю 6 н/о н/о +18.1 +8.1 52 +18 +18 1016.7 1015.4
18 15.08 Ю 6 н/о н/о +16.5 +7.2 54 +15 +15 1016.3 1015.0
19 15.08 Ю 6 н/о н/о +15.6 +7.1 57 +14 +14 1016.0 1014.7
21 15.08 Ю 6 н/о н/о +14.4 +6.7 60 +13 +13 1016.5 1015.2
22 15.08 Ю 6 н/о н/о +13.9 +7.0 63 +12 +12 1017.2 1015.9
00 16.08 Ю 8 н/о н/о +15.9 +7.1 56 +14 +14 1018.5 1017.2
01 16.08 Ю 9 н/о н/о +19.3 +6.1 42 +19 +19 1018.7 1017.4 +13.2
03 16.08 Ю 10 н/о н/о +23.3 +4.3 29 +23 +23 комфорт 1017.7 1016.4
04 16.08 Ю 9 н/о н/о +24.7 +5.0 28 +24 +24 комфорт 1016.9 1015.6
06 16.08 Ю 7 н/о н/о +26.5 +3.1 22 +25 +25 комфорт 1014.5 1013.2
07 16.08 Ю 7 н/о н/о +26.8 +3.3 22 +25 +25 комфорт 1013.7 1012.4
09 16.08 Ю 8 н/о н/о +25.9 +1.9 21 +24 +24 комфорт 1013.6 1012.3
10 16.08 Ю 7 н/о н/о +24.1 +4.5 28 +24 +24 комфорт 1014.0 1012.7
12 16.08 Ю 7 н/о н/о +21.5 +1.7 27 +21 +21 комфорт 1015.4 1014.1
13 16.08 Ю 7 н/о н/о +20.3 +1.7 29 +20 +20 1015.7 1014.4 +27.5
15 16.08 Ю 6 н/о н/о +18.6 +2.0 33 +18 +18 1015.5 1014.2
16 16.08 Ю 8 н/о н/о +18.4 +2.3 34 +18 +18 1015.0 1013.7
18 16.08 Ю 8 н/о н/о +17.4 +2.6 37 +16 +16 1014.8 1013.5
19 16.08 Ю 8 н/о н/о +17.0 +2.6 38 +16 +16 1014.3 1013.0
21 16.08 Ю 8 н/о н/о +16.1 +2.9 41 +15 +15 1014.3 1013.0
22 16.08 Ю 7 н/о н/о +15.7 +2.8 42 +14 +14 1014.8 1013.5
00 17.08 Ю 6 н/о н/о +18.1 +2.0 34 +18 +18 1015.7 1014.4
01 17.08 ЮВ 8 н/о н/о +21.6 +1.8 27 +21 +21 комфорт 1015.8 1014.5 +15.3
03 17.08 В 6 н/о н/о +27.0 +1.4 19 +25 +25 комфорт 1015.3 1014.0
04 17.08 СВ 6 н/о н/о +28.5 +5.4 23 +27 +27 жарко 1014.2 1012.9
06 17.08 С 6 н/о н/о +28.3 +5.2 23 +27 +27 жарко 1012.8 1011.5
07 17.08 С 7 н/о н/о +27.3 +9.6 33 +28 +28 жарко 1012.6 1011.3
09 17.08 С 6 н/о н/о +23.6 +14.3 56 +26 +26 жарко 1012.5 1011.2
10 17.08 С 5 н/о н/о +21.9 +15.5 67 +26 +26 душно 1012.8 1011.5
12 17.08 С 3 н/о н/о +20.3 +17.3 83 +24 +24 комфорт 1014.5 1013.2
13 17.08 СЗ 3 н/о н/о +19.6 +17.2 86 +22 +22 комфорт 1014.8 1013.5 +29.9
15 17.08 СЗ 2 н/о н/о +19.8 +18.1 90 +23 +23 комфорт 1014.6 1013.3
16 17.08 СЗ 3 н/о 5/5 300 м
[]
+19.8 +18.3 91 +23 +23 комфорт 1014.4 1013.1
18 17.08 ЮЗ 3 н/о н/о +19.0 +16.4 85 +21 +21 комфорт 1013.9 1012.6
19 17.08 ЮЗ 3 н/о н/о +17.6 +14.1 80 +18 +18 1013.6 1012.3
21 17.08 Ю 2 н/о н/о +16.5 +13.6 83 +17 +17 1013.8 1012.5
22 17.08 штиль 0 н/о н/о +15.9 +13.2 84 +16 +16 1014.5 1013.2
00 18.08 ЮВ 1 н/о н/о +19.3 +14.1 72 +22 +22 комфорт 1015.6 1014.3
01 18.08 В 4 н/о н/о +22.3 +17.9 76 +27 +27 душно 1016.1 1014.8 +15.2
03 18.08 С 3 н/о н/о +26.8 +17.8 58 +31 +31 душно 1016.3 1015.0
04 18.08 СЗ 4 н/о н/о +26.4 +17.7 59 +31 +31 душно 1015.6 1014.3
06 18.08 С 5 н/о н/о +27.3 +17.5 55 +31 +31 душно 1014.4 1013.1
07 18.08 СЗ 5 н/о н/о +26.3 +17.6 59 +31 +31 душно 1014.0 1012.7
09 18.08 З 4 н/о н/о +23.4 +16.4 65 +28 +28 душно 1014.5 1013.2
10 18.08 З 4 н/о н/о +22.1 +15.5 66 +26 +26 душно 1015.1 1013.8
12 18.08 З 4 н/о н/о +20.1 +15.5 75 +23 +23 комфорт 1016.6 1015.3
13 18.08 З 5 н/о н/о +20.0 +13.2 65 +22 +22 комфорт 1017.3 1016.0 +27.9
15 18.08 ЮЗ 5 н/о н/о +19.2 +12.0 63 +20 +20 1017.6 1016.3
16 18.08 ЮЗ 6 н/о ясно +18.8 +11.4 62 +19 +19 1017.8 1016.5
18 18.08 Ю 6 н/о н/о +17.8 +11.1 65 +17 +17 1017.4 1016.1
19 18.08 Ю 7 н/о 10/10 1500 м
[]
+17.5 +10.6 64 +17 +17 1017.8 1016.5
21 18.08 Ю 7 н/о н/о +17.4 +10.1 62 +17 +17 1017.8 1016.5
22 18.08 Ю 7 н/о 10/0
[]
+17.5 +10.1 62 +17 +17 1018.1 1016.8
00 19.08 Ю 6 н/о н/о +18.5 +9.8 57 +18 +18 1019.3 1018.0
01 19.08 Ю 8 н/о 3/0
[]
+20.8 +9.1 47 +22 +23 комфорт 1019.6 1018.3 +16.9

 

Местоположение метеостанции Onslow Airport (Западная Австралия, Австралия): широта -21.67 долгота 115.12 высота над уровнем моря 4 м.

В архиве по умолчанию представлена погода в Onslow Airport за последнюю неделю. Архивные данные за месяц целиком и за предыдущие месяцы, начиная с января 2011 года, Вы можете получить, выбрав интересующий диапазон дат из раскрывающегося списка и нажав кнопку "Ввод!".

Внимание! Время в таблицах - всемирное. Для получения местного времени необходимо прибавить поправку, которая в Onslow Airport равна 8 ч.

Смотрите также архив погоды в соседних городах и на ближайших метеорологических станциях:

Погода в Thevenard Island (Западная Австралия, Австралия) (27 км)
Погода в Barrow Island Airport (Западная Австралия, Австралия) (93 км)
Погода в Mardie (Западная Австралия, Австралия) (104 км)
Погода в Varanus Island (Западная Австралия, Австралия) (123 км)
Погода в Learmonth Airport (Западная Австралия, Австралия) (124 км)
Погода в Karratha Aero (Западная Австралия, Австралия) (201 км)
Погода в Roebourne Aero (Западная Австралия, Австралия) (234 км)
Погода в Paraburdoo Aero (Западная Австралия, Австралия) (318 км)
Погода в Carnarvon Airport (Западная Австралия, Австралия) (387 км)
Погода в Port Hedland Apardoo (Западная Австралия, Австралия) (392 км)

Пояснения к столбцам:

Ветер - указаны скорость ветра в м/с - средняя за 10 мин, порывы в срок и между сроками (в фигурных скобках) и направление, откуда дует ветер: С - северный, СВ - северо-восточный, В - восточный, ЮВ - юго-восточный, Ю - южный, ЮЗ - юго-западный, З - западный, СЗ - северо-западный.
Видимость - горизонтальная дальность видимости в метрах или километрах. При видимости от 1 до 10 км при отсутствии осадков обычно наблюдается дымка, при ухудшении видимости до 1 км и менее - туман. В сухую погоду видимость может ухудшаться дымом, пылью или мглою.
Явления - указаны атмосферные явления, наблюдавшиеся в срок или в последний час перед сроком; фигурными скобками обозначены явления, наблюдавшиеся между сроками (за 1-3 часа до срока); квадратными скобками обозначены град или гололедные отложения с указанием их диаметра в мм.
Облачность - указаны через наклонную черту общая и нижняя облачность в баллах и высота нижней границы облаков в метрах; квадратными скобками обозначены формы облаков: Ci - перистые, Cs - перисто-слоистые, Cc - перисто-кучевые, Ac - высококучевые, As - высокослоистые, Sc - слоисто-кучевые, Ns - слоисто-дождевые, Cu - кучевые, Cb - кучево-дождевые. Подробнее классификацию облаков см. в Атласе облаков (PDF).
T - Температура воздуха - температура, измеренная на высоте 2 м над землей.
Td - Температура точки росы - температура, при понижении до которой содержащийся в воздухе водяной пар достигнет насыщения.
f - Относительная влажность воздуха - влажноcть воздуха, измеренная на высоте 2 м над землей.
Te - Эффективная температура - температура, которую ощущает одетый по сезону человек в тени. Характеристика душности погоды. При расчете учитывается влияние влажности воздуха и скорости ветра на теплоощущения человека.
Tes - Эффективная температура на солнце - температура, которую ощущает человек, с поправкой на солнечный нагрев. Характеристика знойности погоды. Зависит от высоты солнца над горизонтом, облачности и скорости ветра. Ночью, в пасмурную погоду, а также при ветре 12 м/с и более поправка равна нулю.
P - Атмосферное давление - приведенное к уровню моря атмосферное давление.
Po - Атмосферное давление - измеренное на уровне метеостанции атмосферное давление.
Tmin - Минимальная температура - минимум температуры воздуха на высоте 2 м над землей.
Tmax - Максимальная температура - максимум температуры воздуха на высоте 2 м над землей.
R - Количество осадков - Количество выпавших осадков за период времени, мм. При наведении курсора мыши на число - период времени, за который выпало указанное количество осадков.
R24 - Количество осадков - Количество выпавших осадков за 24 часа, мм.
S - Снежный покров - Высота снежного покрова, см. При наведении курсора мыши на число - состояние снежного покрова и степень покрытия местности в баллах.